When you browse on this site, cookies collect data to enhance your experience and personalize the content and advertising you see.
Visit our Privacy Policy to learn more. By continuing to use the site, you agree to this use of cookies and data.
  • In Romania
  • List of Countries
  • For 7 days
  • Water Temperature
  • Satellite Maps
  • Weather Map
  • Weather Widgets
  • user-avatar
    Login

    Hourly Weather Birao

    Today, 26 March, Tuesday

    Time Temperature Precipitation Wind Pressure Humidity
    00:00 +35°C° 0 mm 2 mps 715 mmHg 14%
    01:00 +34°C° 0 mm 2 mps 715 mmHg 13%
    02:00 +33°C° 0 mm 3 mps 715 mmHg 17%
    03:00 +31°C° 0 mm 2 mps 716 mmHg 16%
    04:00 +31°C° 0 mm 2 mps 716 mmHg 15%
    05:00 +30°C° 0 mm 2 mps 716 mmHg 14%
    06:00 +31°C° 0 mm 3 mps 716 mmHg 13%
    07:00 +31°C° 0 mm 3 mps 717 mmHg 13%
    08:00 +34°C° 0 mm 3 mps 718 mmHg 15%
    09:00 +36°C° 0 mm 4 mps 718 mmHg 13%
    10:00 +38°C° 0 mm 4 mps 718 mmHg 11%
    11:00 +41°C° 0 mm 4 mps 718 mmHg 9%
    12:00 +42°C° 0 mm 4 mps 718 mmHg 9%
    13:00 +44°C° 0 mm 3 mps 717 mmHg 9%
    14:00 +45°C° 0 mm 3 mps 716 mmHg 9%
    15:00 +45°C° 0 mm 3 mps 716 mmHg 9%
    16:00 +45°C° 0 mm 3 mps 715 mmHg 9%
    17:00 +44°C° 0 mm 3 mps 715 mmHg 9%
    18:00 +42°C° 0 mm 3 mps 715 mmHg 10%
    19:00 +39°C° 0 mm 3 mps 715 mmHg 12%
    20:00 +37°C° 0 mm 3 mps 715 mmHg 13%
    21:00 +36°C° 0 mm 3 mps 716 mmHg 13%
    22:00 +36°C° 0 mm 3 mps 716 mmHg 13%
    23:00 +35°C° 0 mm 3 mps 717 mmHg 13%

    Tomorrow, 27 March, Wednesday

    Time Temperature Precipitation Wind Pressure Humidity
    00:00 +35°C° 0 mm 3 mps 717 mmHg 14%
    01:00 +34°C° 0 mm 3 mps 716 mmHg 14%
    02:00 +33°C° 0 mm 3 mps 716 mmHg 15%
    03:00 +31°C° 0 mm 3 mps 716 mmHg 15%
    04:00 +31°C° 0 mm 3 mps 716 mmHg 16%
    05:00 +30°C° 0 mm 3 mps 716 mmHg 16%
    06:00 +30°C° 0 mm 4 mps 717 mmHg 15%
    07:00 +32°C° 0 mm 5 mps 718 mmHg 15%
    08:00 +33°C° 0 mm 6 mps 718 mmHg 14%
    09:00 +35°C° 0 mm 6 mps 719 mmHg 13%
    10:00 +38°C° 0 mm 6 mps 719 mmHg 11%
    11:00 +40°C° 0 mm 6 mps 720 mmHg 10%
    12:00 +41°C° 0 mm 6 mps 719 mmHg 9%
    13:00 +44°C° 0 mm 6 mps 718 mmHg 9%
    14:00 +45°C° 0 mm 5 mps 717 mmHg 8%
    15:00 +45°C° 0 mm 5 mps 717 mmHg 8%
    16:00 +44°C° 0 mm 4 mps 716 mmHg 8%
    17:00 +44°C° 0 mm 4 mps 716 mmHg 8%
    18:00 +42°C° 0 mm 3 mps 716 mmHg 10%
    19:00 +38°C° 0 mm 3 mps 716 mmHg 11%
    20:00 +36°C° 0 mm 2 mps 716 mmHg 13%
    21:00 +35°C° 0 mm 2 mps 716 mmHg 13%
    22:00 +35°C° 0 mm 2 mps 717 mmHg 14%
    23:00 +34°C° 0 mm 3 mps 717 mmHg 14%

    Day after tomorrow, 28 March, Thursday

    Time Temperature Precipitation Wind Pressure Humidity
    00:00 +33°C° 0 mm 3 mps 717 mmHg 14%
    01:00 +33°C° 0 mm 3 mps 716 mmHg 14%
    02:00 +33°C° 0 mm 4 mps 716 mmHg 14%
    03:00 +32°C° 0 mm 4 mps 716 mmHg 13%
    04:00 +32°C° 0 mm 4 mps 716 mmHg 12%
    05:00 +30°C° 0 mm 5 mps 716 mmHg 12%
    06:00 +30°C° 0 mm 5 mps 717 mmHg 11%
    07:00 +32°C° 0 mm 6 mps 718 mmHg 10%
    08:00 +32°C° 0 mm 6 mps 719 mmHg 9%
    09:00 +34°C° 0 mm 6 mps 719 mmHg 8%
    10:00 +38°C° 0 mm 6 mps 720 mmHg 7%
    11:00 +40°C° 0 mm 5 mps 720 mmHg 6%
    12:00 +42°C° 0 mm 5 mps 719 mmHg 6%
    13:00 +43°C° 0 mm 4 mps 718 mmHg 5%
    14:00 +45°C° 0 mm 4 mps 717 mmHg 5%
    15:00 +45°C° 0 mm 4 mps 716 mmHg 5%
    16:00 +45°C° 0 mm 3 mps 716 mmHg 6%
    17:00 +44°C° 0 mm 3 mps 715 mmHg 6%
    18:00 +42°C° 0 mm 3 mps 715 mmHg 7%
    19:00 +38°C° 0 mm 2 mps 715 mmHg 8%
    20:00 +36°C° 0 mm 2 mps 716 mmHg 9%
    21:00 +35°C° 0 mm 2 mps 716 mmHg 10%
    22:00 +34°C° 0 mm 2 mps 716 mmHg 10%
    23:00 +32°C° 0 mm 2 mps 716 mmHg 11%

    29 March, Friday

    Time Temperature Precipitation Wind Pressure Humidity
    00:00 +31°C° 0 mm 2 mps 716 mmHg 11%
    01:00 +31°C° 0 mm 2 mps 716 mmHg 12%
    02:00 +30°C° 0 mm 2 mps 715 mmHg 12%
    03:00 +29°C° 0 mm 3 mps 716 mmHg 12%
    04:00 +29°C° 0 mm 3 mps 716 mmHg 13%
    05:00 +28°C° 0 mm 3 mps 716 mmHg 13%
    06:00 +29°C° 0 mm 3 mps 716 mmHg 12%
    07:00 +30°C° 0 mm 4 mps 717 mmHg 11%
    08:00 +30°C° 0 mm 4 mps 718 mmHg 10%
    09:00 +34°C° 0 mm 4 mps 718 mmHg 9%
    10:00 +37°C° 0 mm 4 mps 718 mmHg 7%
    11:00 +40°C° 0 mm 3 mps 718 mmHg 6%
    12:00 +43°C° 0 mm 3 mps 717 mmHg 5%
    13:00 +44°C° 0 mm 3 mps 716 mmHg 5%
    14:00 +46°C° 0 mm 2 mps 716 mmHg 5%
    15:00 +46°C° 0 mm 2 mps 715 mmHg 5%
    16:00 +45°C° 0 mm 2 mps 714 mmHg 5%
    17:00 +45°C° 0 mm 2 mps 714 mmHg 5%
    18:00 +41°C° 0 mm 1 mps 714 mmHg 6%
    19:00 +39°C° 0 mm 1 mps 714 mmHg 7%
    20:00 +35°C° 0 mm 1 mps 715 mmHg 8%
    21:00 +34°C° 0 mm 1 mps 715 mmHg 9%
    22:00 +34°C° 0 mm 1 mps 715 mmHg 9%
    23:00 +33°C° 0 mm 1 mps 715 mmHg 10%

    30 March, Saturday

    Time Temperature Precipitation Wind Pressure Humidity
    00:00 +32°C° 0 mm 1 mps 715 mmHg 10%
    01:00 +31°C° 0 mm 1 mps 714 mmHg 11%
    02:00 +30°C° 0 mm 1 mps 714 mmHg 11%
    03:00 +30°C° 0 mm 1 mps 714 mmHg 12%
    04:00 +29°C° 0 mm 1 mps 714 mmHg 12%
    05:00 +28°C° 0 mm 1 mps 714 mmHg 13%
    06:00 +29°C° 0 mm 2 mps 715 mmHg 12%
    07:00 +30°C° 0 mm 2 mps 716 mmHg 11%
    08:00 +32°C° 0 mm 2 mps 717 mmHg 11%
    09:00 +36°C° 0 mm 2 mps 717 mmHg 9%
    10:00 +39°C° 0 mm 3 mps 717 mmHg 7%
    11:00 +43°C° 0 mm 3 mps 717 mmHg 5%
    12:00 +45°C° 0 mm 3 mps 716 mmHg 5%
    13:00 +47°C° 0 mm 2 mps 715 mmHg 4%
    14:00 +48°C° 0 mm 1 mps 714 mmHg 4%
    15:00 +47°C° 0 mm 1 mps 714 mmHg 4%
    16:00 +46°C° 0 mm 1 mps 713 mmHg 5%
    17:00 +45°C° 0 mm 1 mps 713 mmHg 5%
    18:00 +43°C° 0 mm 1 mps 713 mmHg 6%
    19:00 +40°C° 0 mm 1 mps 713 mmHg 6%
    20:00 +36°C° 0 mm 1 mps 714 mmHg 7%
    21:00 +36°C° 0 mm 1 mps 714 mmHg 8%
    22:00 +36°C° 0 mm 2 mps 714 mmHg 8%
    23:00 +35°C° 0 mm 2 mps 714 mmHg 8%

    31 March, Sunday

    Time Temperature Precipitation Wind Pressure Humidity
    00:00 +34°C° 0 mm 2 mps 714 mmHg 9%
    01:00 +32°C° 0 mm 2 mps 713 mmHg 9%
    02:00 +31°C° 0 mm 2 mps 713 mmHg 9%
    03:00 +31°C° 0 mm 2 mps 713 mmHg 10%
    04:00 +30°C° 0 mm 2 mps 713 mmHg 10%
    05:00 +29°C° 0 mm 2 mps 713 mmHg 10%
    06:00 +30°C° 0 mm 2 mps 714 mmHg 10%
    07:00 +31°C° 0 mm 3 mps 715 mmHg 9%
    08:00 +33°C° 0 mm 3 mps 716 mmHg 9%
    09:00 +36°C° 0 mm 4 mps 717 mmHg 8%
    10:00 +40°C° 0 mm 4 mps 717 mmHg 7%
    11:00 +42°C° 0 mm 5 mps 717 mmHg 7%
    12:00 +45°C° 0 mm 5 mps 717 mmHg 6%
    13:00 +45°C° 0 mm 4 mps 716 mmHg 6%
    14:00 +47°C° 0 mm 4 mps 715 mmHg 6%
    15:00 +47°C° 0 mm 4 mps 715 mmHg 5%
    16:00 +45°C° 0 mm 4 mps 714 mmHg 5%
    17:00 +45°C° 0 mm 4 mps 714 mmHg 5%
    18:00 +43°C° 0 mm 3 mps 714 mmHg 6%
    19:00 +39°C° 0 mm 3 mps 714 mmHg 7%
    20:00 +37°C° 0 mm 3 mps 715 mmHg 7%
    21:00 +36°C° 0 mm 3 mps 715 mmHg 8%
    22:00 +35°C° 0 mm 3 mps 715 mmHg 9%
    23:00 +35°C° 0 mm 3 mps 715 mmHg 10%
    Show more